FW3734 Weather Reports


Display with metric or nautical units.
time (UTC)temp
F
wind
direction
speed
MPH
gust
MPH
rain 1hr
in
rain 24hr
in
rain mn
in
humidity
%
barometer
mb
20260508203007 74 124 0.0 8.0 0.00 0.00 0.00 49 1009.1
20260508201502 73 5 0.0 5.0 0.00 0.00 0.00 50 1009.3
20260508194557 73 206 0.0 9.0 0.00 0.00 0.00 51 1009.5
20260508193102 72 325 0.0 8.0 0.00 0.00 0.00 52 1009.6
20260508191555 71 241 0.0 8.0 0.00 0.00 0.00 54 1009.7
20260508190051 70 211 0.0 0.0 0.00 0.00 0.00 55 1009.6
20260508184544 70 257 0.0 3.0 0.00 0.00 0.00 56 1009.9
20260508183041 70 201 0.0 0.0 0.00 0.00 0.00 57 1010.0
20260508181537 68 320 0.0 0.0 0.00 0.00 0.00 56 1010.3
20260508180034 69 232 0.0 1.0 0.00 0.00 0.00 55 1010.6
20260508174538 68 249 0.0 9.0 0.00 0.00 0.00 56 1010.8
20260508173029 67 254 0.0 3.0 0.00 0.00 0.00 59 1010.9
20260508171524 65 317 0.0 0.0 0.00 0.00 0.00 62 1011.2
20260508170023 65 284 0.0 4.0 0.00 0.00 0.00 62 1011.3
20260508164526 64 219 0.0 0.0 0.00 0.00 0.00 65 1011.7
20260508163016 63 196 0.0 0.0 0.00 0.00 0.00 65 1012.0
20260508161519 62 144 0.0 0.0 0.00 0.00 0.00 64 1012.0
20260508160016 62 199 0.0 3.0 0.00 0.00 0.00 65 1012.2
20260508154512 62 181 0.0 7.0 0.00 0.00 0.00 65 1012.4
20260508153011 62 191 0.0 3.0 0.00 0.00 0.00 65 1012.4
20260508151511 61 189 0.0 5.0 0.00 0.00 0.00 65 1012.3
20260508150009 61 229 0.0 5.0 0.00 0.00 0.00 65 1012.6
20260508144508 62 263 0.0 7.0 0.00 0.00 0.00 63 1013.0
20260508143007 63 205 0.0 3.0 0.00 0.00 0.00 61 1013.1
20260508141507 64 192 0.0 7.0 0.00 0.00 0.00 58 1013.1
20260508140003 63 202 0.0 0.0 0.00 0.00 0.00 61 1012.8
20260508134601 61 239 0.0 4.0 0.00 0.00 0.00 65 1013.0
20260508133055 59 227 0.0 1.0 0.00 0.00 0.00 69 1012.8
20260508131557 57 199 0.0 0.0 0.00 0.00 0.00 72 1012.9
20260508130106 56 189 0.0 0.0 0.00 0.00 0.00 74 1013.0
20260508124543 55 186 0.0 2.0 0.00 0.00 0.00 75 1013.0
20260508123042 54 185 0.0 0.0 0.00 0.00 0.00 75 1013.0
20260508121549 54 185 0.0 0.0 0.00 0.00 0.00 75 1013.0
20260508120039 53 82 0.0 0.0 0.00 0.00 0.00 76 1012.9
20260508114537 52 80 0.0 1.0 0.00 0.00 0.00 76 1012.9
20260508113042 51 202 0.0 0.0 0.00 0.00 0.00 75 1012.8
20260508111536 51 201 0.0 2.0 0.00 0.00 0.00 75 1012.7
20260508110036 51 202 0.0 1.0 0.00 0.00 0.00 74 1012.6
20260508104559 51 202 0.0 0.0 0.00 0.00 0.00 73 1012.7
20260508103042 51 202 0.0 0.0 0.00 0.00 0.00 73 1012.7
20260508101531 51 202 0.0 1.0 0.00 0.00 0.00 71 1012.8
20260508100033 51 202 0.0 1.0 0.00 0.00 0.00 72 1012.8
20260508094529 51 188 0.0 2.0 0.00 0.00 0.00 72 1012.9
20260508093028 51 188 0.0 0.0 0.00 0.00 0.00 72 1013.0
20260508091527 51 188 0.0 0.0 0.00 0.00 0.00 73 1013.0
20260508090028 50 188 0.0 2.0 0.00 0.00 0.00 74 1013.0
20260508084524 49 184 0.0 0.0 0.00 0.00 0.00 76 1012.9
20260508083022 50 184 0.0 0.0 0.00 0.00 0.00 75 1012.9
20260508081522 50 184 0.0 0.0 0.00 0.00 0.00 73 1012.9
20260508080020 50 184 0.0 0.0 0.00 0.00 0.00 73 1013.0
20260508074520 50 184 0.0 0.0 0.00 0.00 0.00 74 1013.1
20260508073022 50 184 0.0 0.0 0.00 0.00 0.00 75 1013.1
20260508071517 50 270 0.0 0.0 0.00 0.00 0.00 74 1013.2
20260508070021 50 270 0.0 0.0 0.00 0.00 0.00 75 1013.4
20260508064510 50 270 0.0 0.0 0.00 0.00 0.00 73 1013.5
20260508063006 51 270 0.0 0.0 0.00 0.00 0.00 72 1013.8
20260508061507 52 270 0.0 0.0 0.00 0.00 0.00 70 1013.9
20260508060100 53 270 0.0 0.0 0.00 0.00 0.00 67 1014.0
20260508054558 53 270 0.0 0.0 0.00 0.00 0.00 66 1014.1
20260508053105 54 270 0.0 0.0 0.00 0.00 0.00 65 1014.1
20260508051554 54 270 0.0 0.0 0.00 0.00 0.00 64 1014.0
20260508050058 54 270 0.0 2.0 0.00 0.00 0.00 64 1014.1
20260508044552 54 271 0.0 0.0 0.00 0.00 0.00 64 1014.1
20260508043101 54 271 0.0 0.0 0.00 0.00 0.00 64 1014.2
20260508041550 54 271 0.0 0.0 0.00 0.00 0.00 64 1014.2
20260508040050 54 271 0.0 0.0 0.00 0.00 0.00 64 1014.2
20260508034550 54 271 0.0 0.0 0.00 0.00 0.00 64 1014.1
20260508033050 55 271 0.0 1.0 0.00 0.00 0.00 65 1014.2
20260508030056 55 271 0.0 0.0 0.00 0.00 0.00 62 1014.3
20260508024555 56 271 0.0 0.0 0.00 0.00 0.00 60 1014.3
20260508023047 56 271 0.0 0.0 0.00 0.00 0.00 58 1014.3
20260508021546 57 271 0.0 0.0 0.00 0.00 0.00 58 1014.2
20260508020045 58 271 0.0 0.0 0.00 0.00 0.00 55 1014.0
20260508014545 59 271 0.0 0.0 0.00 0.00 0.00 53 1013.7
20260508013045 60 271 0.0 0.0 0.00 0.00 0.00 52 1013.7
20260508011545 61 271 0.0 0.0 0.00 0.00 0.00 49 1013.6
20260508010044 62 271 0.0 0.0 0.00 0.00 0.00 46 1013.4
20260508004544 64 271 0.0 0.0 0.00 0.00 0.00 44 1013.2
20260508003043 65 262 0.0 0.0 0.00 0.00 0.00 42 1013.1
20260508001546 65 234 0.0 1.0 0.00 0.00 0.00 41 1013.1
20260508000041 66 229 0.0 1.0 0.00 0.00 0.00 40 1013.0
20260507234543 66 251 0.0 4.0 0.00 0.00 0.00 39 1013.1
20260507233040 66 197 0.0 3.0 0.00 0.00 0.00 39 1013.2
20260507231541 67 235 0.0 6.0 0.00 0.00 0.00 39 1013.3
20260507230037 67 200 0.0 9.0 0.00 0.00 0.00 38 1013.4
20260507224536 67 161 0.0 1.0 0.00 0.00 0.00 40 1013.5
20260507223035 67 218 0.0 4.0 0.00 0.00 0.00 39 1013.7
20260507221534 67 209 0.0 1.0 0.00 0.00 0.00 39 1013.7
20260507220032 67 163 0.0 5.0 0.00 0.00 0.00 38 1013.9
20260507214530 67 183 0.0 7.0 0.00 0.00 0.00 39 1013.7
20260507213029 67 207 0.0 7.0 0.00 0.00 0.00 39 1013.9
20260507211527 66 178 0.0 6.0 0.00 0.00 0.00 39 1014.1
20260507210023 66 225 0.0 10.0 0.00 0.00 0.00 39 1014.3
20260507204521 66 158 0.0 5.0 0.00 0.00 0.00 39 1014.5